Location: Shepherdstown, WV
(39.4326°N, 77.8042°W)
Time: 05:43:04
(UTC-04:00)

Vanguard 3 - Pass Details

Date: 02 August 2021
Orbit: 510 x 3260 km, 33.3° (Epoch: 21 September)

Event Time Altitude Azimuth Distance (km) Brightness Sun altitude
Rises 16:50:38 0° 213° (SSW) 4,655 11.5 39.2°
Reaches altitude 10° 16:53:34 10° 205° (SSW) 4,007 11.2 38.6°
Maximum altitude 17:03:49 38° 142° (SE) 3,294 10.3 36.6°
Drops below altitude 10° 17:19:11 10° 84° (E) 5,995 11.1 33.7°
Sets 17:24:45 0° 78° (ENE) 7,179 11.5 32.6°
